Location: *
(42.0175°N, 9.4056°E)
Time: 18:39:18
(UTC+00:00)

Daily predictions for brighter satellites

Satellite Brightness Start Highest point End
(mag) Time Altitude Azimuth Time Altitude Azimuth Time Altitude Azimuth
COSMOS 2406 3.6 18:31:29 10° S 18:36:44 41° ESE 18:42:02 10° NE
Cosmos 2221 Rocket 3.6 18:35:19 10° N 18:39:42 60° E 18:44:04 10° SSE
Cosmos 1602 3.7 18:38:57 10° S 18:42:43 64° E 18:46:31 10° NNE
SJ 16-02 2.9 18:40:12 10° SE 18:43:00 17° E 18:45:50 10° NE
Meteor 1-14 Rocket 4.4 18:37:31 10° S 18:43:29 81° E 18:49:24 10° NNE
USA 186 1.6 18:42:41 10° SSE 18:45:08 45° ENE 18:47:47 10° N
Okean 1 3.2 18:43:25 10° N 18:47:24 77° E 18:51:22 10° SSE
Exosat Rocket 4.5 18:41:11 10° NNW 18:49:12 54° ENE 18:54:55 10° SE
EXPRESS MD2 4.4 18:46:57 10° WNW 18:52:15 39° N 18:55:12 10° E
Cosmos 1745 Rocket 4.5 18:48:13 10° N 18:53:56 39° ENE 18:59:38 10° SE
ADEOS Rocket 3.7 18:48:14 10° NNE 18:53:57 36° E 19:00:11 10° SSE
Cosmos 2292 Rocket 3.9 18:52:16 10° NNW 18:56:29 57° W 18:59:47 10° S
FREGAT/IRIS 3.7 18:59:35 10° S 19:02:16 41° W 19:04:57 10° NNW
BREEZE-M DEB (TANK) 2.8 19:01:28 10° NW 19:03:32 34° NNE 19:06:50 13° E
Cosmos 2112 Rocket 4.1 19:03:36 10° NNW 19:08:47 60° ENE 19:13:28 12° SSE
Meteor 2-4 Rocket 3.7 19:03:56 10° N 19:09:13 57° ENE 19:14:30 10° SSE
SPOT 3 Rocket 3.6 19:05:07 10° SSE 19:10:18 89° W 19:15:30 10° NNW
SJ-6B 2.9 19:07:20 10° S 19:11:18 81° WSW 19:15:24 10° NNW
Cosmos 1656 4.1 19:07:26 10° NNW 19:12:54 47° ENE 19:16:58 17° SE
OAO 3 Rocket 4.3 19:12:26 10° WSW 19:16:42 30° SSW 19:19:32 17° SE
Cosmos 1378 Rocket 4.1 19:13:55 10° N 19:18:04 39° ENE 19:20:46 19° SE
Cosmos 1733 Rocket 3.0 19:14:46 10° S 19:19:05 90° N 19:23:25 10° N
SL-08 RB Rocket 4.0 19:16:16 15° SE 19:19:46 49° ENE 19:24:13 10° N
Cosmos 1833 Rocket 3.0 19:18:51 10° S 19:24:07 43° ESE 19:29:26 10° NE
TSX-5 3.9 19:22:29 10° NNW 19:26:08 80° WSW 19:29:34 17° SSE
Resurs 01 Rocket 1.8 19:23:25 19° SE 19:26:21 51° ENE 19:30:38 10° N
Cosmos 1674 Rocket 3.4 19:22:11 10° N 19:26:30 69° E 19:29:55 16° SSE
Cosmos 1536 3.3 19:23:47 16° SSE 19:26:38 41° E 19:30:27 10° NNE
Cosmos 1515 3.6 19:22:59 10° N 19:26:48 77° E 19:29:44 16° SSE
Cosmos 44 Rocket 3.6 19:25:14 10° NW 19:29:56 62° WSW 19:33:32 16° SSE
Abrixas rocket 4.1 19:30:14 10° NW 19:32:49 23° N 19:34:49 13° NE
Cosmos 2082 Rocket 2.7 19:27:57 10° S 19:33:00 35° ESE 19:38:07 10° NE
Okean 3 4.1 19:28:56 10° NNW 19:33:02 55° W 19:37:08 10° S
Cosmos 1898 Rocket 3.4 19:28:19 10° SSW 19:33:36 83° ESE 19:38:51 10° NNE
MetOp-A 4.2 19:30:09 18° SSE 19:34:07 63° ENE 19:39:25 10° N
ASTEX 1 3.6 19:31:03 10° NNE 19:35:51 49° E 19:39:02 20° SSE
USA 267 4.2 19:30:30 10° NE 19:36:46 50° NNW 19:43:02 10° WSW
Cosmos 1386 Rocket 4.4 19:31:05 10° N 19:37:17 76° E 19:42:55 13° SSE
ERS-1 Rocket 4.5 19:38:51 18° E 19:39:58 20° ENE 19:43:30 10° NNE
Cosmos 1666 3.8 19:40:48 27° E 19:40:48 27° E 19:43:40 10° NNE
Cosmos 1697 Rocket 3.1 19:35:52 10° NNW 19:41:21 47° ENE 19:43:58 28° ESE
Cosmos 2278 4.3 19:36:20 10° NNW 19:41:42 41° ENE 19:44:08 27° ESE
CZ-2C R/B 3.4 19:38:07 10° NE 19:42:47 30° E 19:43:45 28° ESE
Cosmos 858 Rocket 4.4 19:38:25 10° SSW 19:43:41 78° ESE 19:49:00 10° NNE
Cosmos 1680 Rocket 4.1 19:40:41 10° NNW 19:45:47 55° WSW 19:50:20 13° S
SL-16 R/B 4.3 19:44:26 10° NNE 19:46:24 12° NE 19:48:22 10° ENE
Shenzhou-11 Module 1.6 19:44:53 10° W 19:47:40 80° N 19:47:43 79° NNE
Cosmos 883 Rocket 4.5 19:42:15 10° S 19:48:30 67° E 19:54:48 10° NNE
SL-08 ROCKET BODY 4.3 19:42:39 10° N 19:48:32 72° E 19:52:18 23° SSE
Cosmos 1975 Rocket 3.8 19:45:54 10° N 19:49:57 33° ENE 19:50:28 32° E
H-2A R/B 2.6 19:47:37 10° S 19:52:31 55° W 19:57:22 10° NNW
CZ-2C R/B 2.7 19:50:21 28° SSE 19:52:53 81° ENE 19:57:45 10° N
SPOT 5 4.4 19:55:48 17° ENE 19:55:48 17° ENE 19:58:30 10° NNE
Meteor 1-5 Rocket 4.5 19:50:41 10° SSW 19:56:23 70° W 20:01:56 10° N
Aureole 3 Rocket 2.9 19:55:17 12° SSW 19:58:30 58° W 20:01:33 10° N
Cosmos 158 Rocket 4.0 19:54:08 10° NNW 19:59:30 90° NE 20:02:04 33° SSE
Meteor 1-11 Rocket 4.0 19:54:07 10° SSW 20:00:02 73° W 20:06:02 10° N
ARGOS 3.9 19:55:19 10° S 20:00:28 51° W 20:05:42 10° NNW
Cosmos 1980 Rocket 2.8 20:00:49 10° NNW 20:06:09 42° ENE 20:07:33 36° E
NOSS 3-1 (C) 4.4 20:02:02 10° NNW 20:09:25 55° NE 20:13:15 32° ESE
USA 234 3.3 20:06:52 33° SE 20:10:05 74° SW 20:16:40 10° NW
Iridium 2 4.1 20:13:12 38° SSW 20:14:24 60° W 20:18:08 10° N
Cosmos 1937 Rocket 4.0 20:09:17 10° SSW 20:14:31 60° WNW 20:19:48 10° NNE
Spot 2 Rocket 3.4 20:13:44 41° SSE 20:15:34 87° WSW 20:20:41 10° NNW
Cosmos 372 Rocket 4.0 20:16:03 52° ESE 20:16:19 52° ESE 20:21:24 10° NNE
GP-B 3.2 20:12:43 10° N 20:17:09 72° W 20:18:48 38° SSW
Cosmos 1709 Rocket 3.9 20:13:18 10° N 20:19:28 85° W 20:22:30 32° S
Cosmos 2098 Rocket 3.9 20:14:30 10° NNW 20:19:35 70° W 20:23:12 26° S
SJ 16-02 2.5 20:16:59 10° SW 20:21:12 44° WNW 20:25:27 10° N
Landsat 7 4.2 20:21:50 45° ENE 20:21:51 45° ENE 20:26:23 10° N
Okean 2 4.4 20:20:22 10° N 20:23:15 34° NE 20:23:15 34° NE
Cosmos 2074 Rocket 4.3 20:23:48 10° N 20:29:53 48° ENE 20:30:37 46° E
Cosmos 1340 3.1 20:31:02 59° NNW 20:31:02 59° NNW 20:34:13 10° N
Cosmos 2369 4.0 20:25:31 10° NNW 20:31:06 62° WSW 20:32:49 42° S
ADEOS Rocket 4.4 20:33:44 10° N 20:39:26 40° WNW 20:45:41 10° SW
Cosmos 2184 Rocket 4.1 20:34:09 10° N 20:40:11 55° ENE 20:40:38 53° E
Cosmos 2315 Rocket 4.4 20:35:12 16° SSW 20:40:21 63° W 20:46:38 10° N
Okean 2 Rocket 3.8 20:42:53 45° NNE 20:42:53 45° NNE 20:46:03 10° NNE
SPOT 1/Viking Rocket 3.4 20:47:50 80° E 20:47:54 80° ENE 20:53:09 10° N
Cosmos 1346 Rocket 3.9 20:47:49 39° W 20:47:56 39° WNW 20:51:35 10° N
Cosmos 2150 Rocket 4.3 20:49:29 37° SW 20:51:25 63° WNW 20:56:36 10° NNE
Terra 2.7 20:53:27 39° NE 20:53:27 39° NE 20:56:58 10° N
Cosmos 2322 Rocket 3.3 20:52:40 10° N 20:57:27 30° NE 20:57:27 30° NE
USA 32 4.3 20:54:12 10° NNW 20:59:21 60° W 20:59:51 57° WSW
Cosmos 468 4.5 20:54:24 10° NNW 20:59:21 80° NNW 20:59:21 80° NNW
Resurs 01 Rocket 4.2 21:01:00 11° WSW 21:03:08 15° W 21:05:37 10° WNW
USA 229 DEB 3.9 21:01:43 10° NW 21:08:58 68° WSW 21:10:12 58° SSW
USA 229 3.9 21:01:50 10° NW 21:09:04 68° WSW 21:10:17 59° SSW
NOSS 3-1 (A) 4.0 21:04:53 10° NW 21:12:35 82° NE 21:14:04 64° SE
Cosmos 1048 Rocket 4.3 21:11:16 10° NNW 21:15:34 61° NW 21:15:34 61° NW
Cosmos 2082 Rocket 3.7 21:11:57 10° WSW 21:17:03 34° WNW 21:22:13 10° N
ERS-1 Rocket 3.6 21:18:50 51° WNW 21:18:50 51° WNW 21:23:16 10° NNW
MOS 1 Rocket 4.0 21:16:17 10° N 21:20:47 62° N 21:20:47 62° N
CZ-2C R/B 4.0 21:18:15 10° N 21:23:04 36° WNW 21:25:16 26° WSW
Cosmos 1697 Rocket 4.3 21:20:27 10° NW 21:24:58 25° WSW 21:25:43 24° WSW
Cosmos 1610 Rocket 4.5 21:19:24 10° N 21:25:06 76° NNE 21:25:06 76° NNE
SL-16 R/B 2.7 21:26:04 10° NNW 21:30:37 52° NNE 21:30:37 52° NNE
SPOT 5 4.3 21:35:03 31° NW 21:35:03 31° NW 21:37:37 10° NNW
Mayak 1.6 21:31:37 10° NNE 21:31:43 11° NNE 21:31:43 11° NNE
Thor Agena Rocket 4.3 21:31:49 10° N 21:36:30 50° NW 21:36:30 50° NW
Cosmos 1125 Rocket 4.4 21:39:17 46° NW 21:39:17 46° NW 21:43:48 10° N
CZ-4C R/B 3.1 21:43:11 40° NNE 21:43:11 40° NNE 21:47:07 10° NNE
Cosmos 2360 Rocket 3.5 21:39:44 10° N 21:43:44 32° NNE 21:43:44 32° NNE
Cosmos 2219 Rocket 4.4 21:45:26 10° NNE 21:48:31 15° NE 21:48:37 15° NE
Cosmos 1980 Rocket 3.7 21:45:11 10° NW 21:49:20 28° W 21:49:20 28° W
BREEZE M DEB (TANK) 4.4 22:01:35 10° WNW 22:04:58 39° NNE 22:15:04 10° E
Terra 4.3 22:32:20 15° WNW 22:32:20 15° WNW 22:33:48 10° NW
FALCON 9 R/B 4.3 22:15:14 10° W 22:28:08 39° WSW 22:28:08 39° WSW
Lacrosse 4 Rocket 4.4 22:29:48 10° NNW 22:30:25 14° N 22:30:25 14° N
Cosmos 2322 Rocket 3.9 22:36:32 10° NW 22:39:15 26° NW 22:39:15 26° NW
Cosmos 2333 Rocket 3.8 22:45:29 10° NNW 22:48:53 31° NNE 22:48:53 31° NNE
Mayak 1.9 23:07:50 10° NNW 23:08:17 12° NNW 23:08:17 12° NNW
Cosmos 2360 Rocket 4.3 23:23:49 10° NW 23:25:29 18° NW 23:25:29 18° NW
Cosmos 2219 Rocket 3.9 23:27:43 10° NNW 23:30:19 28° NNW 23:30:19 28° NNW
Cosmos 2297 Rocket 4.3 23:40:45 20° ENE 23:40:45 20° ENE 23:42:41 10° NE
COSMOS 2428 4.4 23:36:31 10° NNW 23:39:02 27° NNW 23:39:02 27° NNW
COSMOS 2455 4.4 23:44:16 10° NNW 23:46:59 28° NW 23:46:59 28° NW
ATLAS 2AS CENTAUR R/B 3.2 23:45:17 10° NNW 23:52:23 59° NNE 23:52:23 59° NNE
